Back to catalog

GLOBALSTAR M084

AliveCommunicationsLEO
NORAD 38040·PAYLOAD·🇺🇸 United States

Launched Dec 28, 2011 from Baikonur Cosmodrome

Loading…

Next Passes (next 24 hours)

TLE

FreshSource: Space-Track

Epoch: Sep 14, 2026, 07:05 UTC

1 38040U 11080A   26257.29537220 -.00000098  00000-0  31323-4 0  9991
2 38040  51.9994 106.0049 0000526  70.0884 101.4520 12.62264121680019

Track GLOBALSTAR M084 in real time with AllMySat

Download on the App Store